Voltar ao catálogo

COSMOS 2575

AtivoMilitarSSO
NORAD 58929·PAYLOAD·🇷🇺 Russia

Lançado Feb 9, 2024 de Plesetsk Cosmodrome

Loading…

Próximas Passagens (próximas 24 horas)

TLE

AtualizadoSource: Space-Track

Época: Sep 14, 2026, 15:00 UTC

1 58929U 24026A   26257.62559328  .00021353  00000-0  14239-3 0  9995
2 58929  96.6003 137.4235 0002616  97.1369 263.0196 15.75377571149711

Acompanhe COSMOS 2575 em tempo real com AllMySat

Download on the App Store